Location: Unspecified
(38.0989°N, 0.6729°W)
Time: 22:21:19
(UTC+01:00)

N. Korean satellite - Visible Passes

Search period start: 21 February 2017 00:00
Search period end: 03 March 2017 00:00
Orbit: 463 x 518 km, 97.2° (Epoch: 21 February)

Date Brightness Start Highest point End Pass type
(mag) Time Alt. Az. Time Alt. Az. Time Alt. Az.
21 Feb 9.9 20:24:40 10° SW 20:27:08 17° W 20:29:37 10° NW visible
22 Feb 8.8 20:01:14 10° SSW 20:04:36 31° W 20:08:00 10° NNW visible
23 Feb 7.3 19:38:25 10° S 19:42:09 62° W 19:45:55 10° NNW visible
24 Feb 10.4 07:09:51 10° ENE 07:11:18 12° E 07:12:43 10° ESE visible
24 Feb 6.7 19:16:01 10° SSE 19:19:46 64° ENE 19:23:30 10° N visible
25 Feb 10.0 20:28:54 10° SW 20:31:04 15° W 20:33:16 10° WNW visible
26 Feb 9.0 20:05:16 10° SSW 20:08:31 27° W 20:11:47 10° NW visible
27 Feb 7.6 19:42:20 10° S 19:46:03 54° W 19:49:46 10° NNW visible
28 Feb 6.6 19:19:52 10° SSE 19:23:38 74° ENE 19:27:24 10° N visible
01 Mar 10.1 20:33:10 10° WSW 20:34:58 13° W 20:36:46 10° WNW visible
02 Mar 9.3 20:09:16 10° SSW 20:12:23 24° W 20:15:30 10° NW visible
